| time (UTC) | temp C | wind direction | speed KPH | gust KPH | rain 1hr cm | rain 24hr cm | rain mn cm | humidity % | barometer mb |
| 20260509202342 | 3 | 176 | 3.2 | 4.8 | 0.00 | 0.00 | 0.00 | 80 | 1021.5 |
| 20260509201332 | 3 | 176 | 0.0 | 0.0 | 0.00 | 0.00 | 0.00 | 80 | 1021.3 |
| 20260509200325 | 3 | 178 | 0.0 | 4.8 | 0.00 | 0.00 | 0.00 | 80 | 1021.3 |
| 20260509195334 | 3 | 176 | 1.6 | 4.8 | 0.00 | 0.00 | 0.00 | 80 | 1021.1 |
| 20260509194341 | 3 | 176 | 1.6 | 3.2 | 0.00 | 0.00 | 0.00 | 79 | 1021.0 |
| 20260509193330 | 4 | 178 | 1.6 | 4.8 | 0.00 | 0.00 | 0.00 | 79 | 1020.9 |
| 20260509192342 | 4 | 177 | 1.6 | 4.8 | 0.00 | 0.00 | 0.00 | 79 | 1020.7 |
| 20260509191331 | 4 | 176 | 0.0 | 0.0 | 0.00 | 0.00 | 0.00 | 78 | 1020.7 |
| 20260509190340 | 4 | 176 | 0.0 | 3.2 | 0.00 | 0.00 | 0.00 | 78 | 1020.5 |
| 20260509185330 | 4 | 177 | 1.6 | 4.8 | 0.00 | 0.00 | 0.00 | 77 | 1020.4 |
| 20260509184343 | 4 | 178 | 3.2 | 4.8 | 0.00 | 0.00 | 0.00 | 77 | 1020.3 |
| 20260509183334 | 5 | 177 | 0.0 | 0.0 | 0.00 | 0.00 | 0.00 | 78 | 1020.2 |
| 20260509182343 | 5 | 177 | 0.0 | 0.0 | 0.00 | 0.00 | 0.00 | 77 | 1020.3 |
| 20260509181337 | 5 | 178 | 0.0 | 0.0 | 0.00 | 0.00 | 0.00 | 77 | 1020.2 |
| 20260509180327 | 5 | 177 | 0.0 | 0.0 | 0.00 | 0.00 | 0.00 | 77 | 1020.1 |
| 20260509175335 | 5 | 176 | 0.0 | 0.0 | 0.00 | 0.00 | 0.00 | 76 | 1020.0 |
| 20260509174324 | 5 | 177 | 0.0 | 0.0 | 0.00 | 0.00 | 0.00 | 76 | 1019.8 |
| 20260509173339 | 5 | 176 | 0.0 | 4.8 | 0.00 | 0.00 | 0.00 | 75 | 1019.8 |
| 20260509172328 | 5 | 176 | 1.6 | 4.8 | 0.00 | 0.00 | 0.00 | 75 | 1019.7 |
| 20260509171337 | 5 | 176 | 3.2 | 4.8 | 0.00 | 0.00 | 0.00 | 75 | 1019.6 |
| 20260509170327 | 6 | 177 | 1.6 | 4.8 | 0.00 | 0.00 | 0.00 | 74 | 1020.5 |
| 20260509165339 | 6 | 176 | 1.6 | 4.8 | 0.00 | 0.00 | 0.00 | 73 | 1020.3 |
| 20260509164330 | 6 | 176 | 0.0 | 1.6 | 0.00 | 0.00 | 0.00 | 73 | 1020.2 |
| 20260509163339 | 6 | 176 | 0.0 | 3.2 | 0.00 | 0.00 | 0.00 | 72 | 1020.1 |
| 20260509162333 | 6 | 178 | 1.6 | 3.2 | 0.00 | 0.00 | 0.00 | 72 | 1020.0 |
| 20260509161341 | 6 | 176 | 1.6 | 3.2 | 0.00 | 0.00 | 0.00 | 71 | 1020.0 |
| 20260509160329 | 6 | 177 | 1.6 | 4.8 | 0.00 | 0.00 | 0.00 | 71 | 1020.0 |
| 20260509155338 | 6 | 177 | 1.6 | 4.8 | 0.00 | 0.00 | 0.00 | 71 | 1020.1 |
| 20260509154332 | 7 | 177 | 0.0 | 4.8 | 0.00 | 0.00 | 0.00 | 70 | 1019.9 |
| 20260509153341 | 7 | 159 | 3.2 | 6.4 | 0.00 | 0.00 | 0.00 | 69 | 1020.0 |
| 20260509152331 | 7 | 198 | 3.2 | 4.8 | 0.00 | 0.00 | 0.00 | 69 | 1020.0 |
| 20260509151341 | 7 | 198 | 3.2 | 3.2 | 0.00 | 0.00 | 0.00 | 69 | 1020.0 |
| 20260509150335 | 7 | 198 | 0.0 | 4.8 | 0.00 | 0.00 | 0.00 | 68 | 1020.0 |
| 20260509145342 | 7 | 198 | 1.6 | 4.8 | 0.00 | 0.00 | 0.00 | 67 | 1020.0 |
| 20260509144330 | 7 | 198 | 1.6 | 4.8 | 0.00 | 0.00 | 0.00 | 67 | 1020.0 |
| 20260509143339 | 7 | 198 | 1.6 | 4.8 | 0.00 | 0.00 | 0.00 | 67 | 1019.9 |
| 20260509142333 | 7 | 187 | 1.6 | 4.8 | 0.00 | 0.00 | 0.00 | 67 | 1019.7 |
| 20260509141342 | 8 | 188 | 1.6 | 6.4 | 0.00 | 0.00 | 0.00 | 66 | 1019.6 |
| 20260509140333 | 8 | 142 | 3.2 | 4.8 | 0.00 | 0.00 | 0.00 | 65 | 1019.6 |
| 20260509135324 | 8 | 141 | 0.0 | 1.6 | 0.00 | 0.00 | 0.00 | 64 | 1019.6 |
| 20260509134333 | 8 | 142 | 4.8 | 6.4 | 0.00 | 0.00 | 0.00 | 64 | 1019.4 |
| 20260509133342 | 8 | 192 | 0.0 | 4.8 | 0.00 | 0.00 | 0.00 | 64 | 1019.4 |
| 20260509132331 | 9 | 192 | 3.2 | 3.2 | 0.00 | 0.00 | 0.00 | 62 | 1019.3 |
| 20260509131324 | 9 | 192 | 0.0 | 1.6 | 0.00 | 0.00 | 0.00 | 61 | 1019.1 |
| 20260509130333 | 9 | 192 | 0.0 | 4.8 | 0.00 | 0.00 | 0.00 | 60 | 1019.0 |
| 20260509125342 | 10 | 192 | 3.2 | 4.8 | 0.00 | 0.00 | 0.00 | 59 | 1019.0 |
| 20260509124330 | 10 | 191 | 0.0 | 6.4 | 0.00 | 0.00 | 0.00 | 58 | 1018.9 |
| 20260509123342 | 10 | 175 | 0.0 | 4.8 | 0.00 | 0.00 | 0.00 | 57 | 1018.8 |
| 20260509122332 | 10 | 132 | 1.6 | 6.4 | 0.00 | 0.00 | 0.00 | 57 | 1018.7 |
| 20260509121341 | 10 | 123 | 3.2 | 6.4 | 0.00 | 0.00 | 0.00 | 56 | 1018.5 |
| 20260509120334 | 10 | 132 | 1.6 | 8.0 | 0.00 | 0.00 | 0.00 | 56 | 1018.5 |
| 20260509115343 | 11 | 134 | 4.8 | 6.4 | 0.00 | 0.00 | 0.00 | 55 | 1018.3 |
| 20260509114332 | 11 | 135 | 1.6 | 6.4 | 0.00 | 0.00 | 0.00 | 53 | 1018.3 |
| 20260509113341 | 11 | 125 | 1.6 | 4.8 | 0.00 | 0.00 | 0.00 | 51 | 1018.3 |
| 20260509112335 | 11 | 132 | 4.8 | 14.5 | 0.00 | 0.00 | 0.00 | 51 | 1017.9 |
| 20260509111325 | 11 | 127 | 6.4 | 11.3 | 0.00 | 0.00 | 0.00 | 52 | 1017.9 |
| 20260509110333 | 11 | 133 | 6.4 | 11.3 | 0.00 | 0.00 | 0.00 | 51 | 1017.6 |
| 20260509105342 | 12 | 128 | 6.4 | 9.7 | 0.00 | 0.00 | 0.00 | 51 | 1017.4 |
| 20260509104335 | 13 | 132 | 4.8 | 8.0 | 0.00 | 0.00 | 0.00 | 48 | 1017.2 |
| 20260509103343 | 13 | 292 | 3.2 | 9.7 | 0.00 | 0.00 | 0.00 | 45 | 1017.0 |
| 20260509102330 | 13 | 257 | 3.2 | 9.7 | 0.00 | 0.00 | 0.00 | 45 | 1016.9 |
| 20260509101323 | 13 | 290 | 6.4 | 14.5 | 0.00 | 0.00 | 0.00 | 43 | 1016.8 |
| 20260509100331 | 14 | 288 | 4.8 | 17.7 | 0.00 | 0.00 | 0.00 | 43 | 1016.5 |
| 20260509095341 | 14 | 296 | 8.0 | 11.3 | 0.00 | 0.00 | 0.00 | 42 | 1016.4 |
| 20260509094329 | 15 | 287 | 6.4 | 16.1 | 0.00 | 0.00 | 0.00 | 41 | 1016.3 |
| 20260509093343 | 15 | 277 | 8.0 | 19.3 | 0.00 | 0.00 | 0.00 | 39 | 1016.1 |
| 20260509092332 | 15 | 306 | 9.7 | 12.9 | 0.00 | 0.00 | 0.00 | 37 | 1015.9 |
| 20260509091341 | 16 | 267 | 8.0 | 17.7 | 0.00 | 0.03 | 0.00 | 38 | 1015.7 |
| 20260509090331 | 16 | 317 | 12.9 | 16.1 | 0.00 | 0.03 | 0.00 | 34 | 1015.5 |
| 20260509085342 | 16 | 281 | 8.0 | 22.5 | 0.00 | 0.03 | 0.00 | 37 | 1015.3 |
| 20260509084332 | 17 | 299 | 11.3 | 19.3 | 0.00 | 0.03 | 0.00 | 33 | 1015.1 |
| 20260509083341 | 17 | 346 | 8.0 | 20.9 | 0.00 | 0.03 | 0.00 | 32 | 1015.1 |
| 20260509082329 | 17 | 321 | 11.3 | 17.7 | 0.00 | 0.03 | 0.00 | 32 | 1015.0 |
| 20260509081342 | 17 | 31 | 6.4 | 22.5 | 0.00 | 0.03 | 0.00 | 33 | 1014.7 |
| 20260509080332 | 16 | 360 | 11.3 | 20.9 | 0.00 | 0.03 | 0.00 | 33 | 1014.7 |
| 20260509075340 | 16 | 42 | 9.7 | 25.7 | 0.00 | 0.03 | 0.00 | 34 | 1014.4 |
| 20260509074332 | 17 | 360 | 8.0 | 17.7 | 0.00 | 0.03 | 0.00 | 33 | 1014.4 |
| 20260509073341 | 17 | 360 | 8.0 | 20.9 | 0.00 | 0.03 | 0.00 | 33 | 1014.1 |
| 20260509072331 | 16 | 355 | 6.4 | 25.7 | 0.00 | 0.03 | 0.00 | 33 | 1014.1 |
| 20260509071338 | 17 | 69 | 14.5 | 27.4 | 0.00 | 0.05 | 0.00 | 33 | 1013.9 |
| 20260509070332 | 17 | 17 | 6.4 | 24.1 | 0.00 | 0.05 | 0.00 | 32 | 1013.5 |
| 20260509065341 | 17 | 18 | 14.5 | 27.4 | 0.00 | 0.05 | 0.00 | 32 | 1013.5 |
| 20260509064330 | 17 | 24 | 14.5 | 25.7 | 0.00 | 0.05 | 0.00 | 32 | 1013.2 |
| 20260509063339 | 17 | 61 | 12.9 | 22.5 | 0.00 | 0.05 | 0.00 | 33 | 1013.2 |
| 20260509062331 | 17 | 5 | 11.3 | 25.7 | 0.00 | 0.05 | 0.00 | 31 | 1013.4 |
| 20260509061341 | 18 | 15 | 11.3 | 22.5 | 0.00 | 0.05 | 0.00 | 31 | 1013.3 |
| 20260509060329 | 17 | 340 | 12.9 | 30.6 | 0.00 | 0.05 | 0.00 | 31 | 1013.3 |
| 20260509055338 | 18 | 64 | 14.5 | 27.4 | 0.00 | 0.05 | 0.00 | 31 | 1013.2 |
| 20260509054331 | 18 | 26 | 16.1 | 27.4 | 0.00 | 0.05 | 0.00 | 31 | 1013.2 |
| 20260509053340 | 18 | 34 | 9.7 | 27.4 | 0.00 | 0.05 | 0.00 | 31 | 1013.2 |
| 20260509052330 | 18 | 30 | 11.3 | 27.4 | 0.00 | 0.05 | 0.00 | 31 | 1013.3 |
| 20260509051343 | 18 | 53 | 9.7 | 29.0 | 0.00 | 0.05 | 0.00 | 30 | 1013.3 |
| 20260509050333 | 18 | 319 | 19.3 | 30.6 | 0.00 | 0.05 | 0.00 | 31 | 1013.4 |
| 20260509045342 | 18 | 318 | 9.7 | 24.1 | 0.00 | 0.05 | 0.00 | 30 | 1013.3 |
| 20260509044332 | 18 | 42 | 9.7 | 20.9 | 0.00 | 0.05 | 0.00 | 30 | 1013.2 |
| 20260509043326 | 18 | 49 | 11.3 | 33.8 | 0.00 | 0.05 | 0.00 | 31 | 1013.4 |
| 20260509042335 | 18 | 74 | 8.0 | 24.1 | 0.00 | 0.05 | 0.00 | 33 | 1013.4 |
| 20260509041344 | 18 | 355 | 9.7 | 25.7 | 0.00 | 0.05 | 0.00 | 33 | 1013.5 |
| 20260509040332 | 18 | 302 | 14.5 | 27.4 | 0.00 | 0.05 | 0.00 | 32 | 1013.4 |
| 20260509035325 | 17 | 17 | 9.7 | 27.4 | 0.00 | 0.05 | 0.00 | 33 | 1013.5 |
| 20260509034335 | 17 | 327 | 14.5 | 24.1 | 0.00 | 0.05 | 0.00 | 33 | 1013.4 |
| 20260509033326 | 17 | 350 | 9.7 | 27.4 | 0.00 | 0.05 | 0.00 | 34 | 1013.5 |
| 20260509032339 | 17 | 300 | 6.4 | 17.7 | 0.00 | 0.05 | 0.00 | 39 | 1013.3 |
| 20260509031330 | 17 | 341 | 9.7 | 19.3 | 0.00 | 0.05 | 0.00 | 40 | 1013.3 |
| 20260509030339 | 17 | 273 | 11.3 | 20.9 | 0.00 | 0.05 | 0.00 | 40 | 1013.6 |
| 20260509025328 | 16 | 214 | 6.4 | 17.7 | 0.00 | 0.05 | 0.00 | 44 | 1013.7 |
| 20260509024341 | 16 | 309 | 6.4 | 22.5 | 0.00 | 0.05 | 0.00 | 42 | 1013.7 |
| 20260509023329 | 16 | 344 | 16.1 | 22.5 | 0.00 | 0.05 | 0.00 | 42 | 1013.8 |
| 20260509022338 | 16 | 328 | 8.0 | 20.9 | 0.00 | 0.05 | 0.00 | 43 | 1013.7 |
| 20260509021328 | 16 | 333 | 17.7 | 27.4 | 0.00 | 0.05 | 0.00 | 43 | 1013.8 |
| 20260509020341 | 16 | 275 | 8.0 | 22.5 | 0.00 | 0.05 | 0.00 | 45 | 1013.9 |
| 20260509015329 | 15 | 342 | 9.7 | 19.3 | 0.00 | 0.05 | 0.00 | 46 | 1014.0 |
| 20260509014337 | 15 | 233 | 9.7 | 22.5 | 0.00 | 0.05 | 0.00 | 49 | 1014.1 |
| 20260509013330 | 15 | 325 | 8.0 | 19.3 | 0.00 | 0.05 | 0.00 | 48 | 1013.9 |
| 20260509012338 | 15 | 315 | 8.0 | 17.7 | 0.00 | 0.05 | 0.00 | 49 | 1013.8 |
| 20260509011326 | 15 | 355 | 9.7 | 17.7 | 0.00 | 0.05 | 0.00 | 49 | 1013.8 |
| 20260509010335 | 14 | 32 | 9.7 | 19.3 | 0.00 | 0.05 | 0.00 | 52 | 1013.8 |
| 20260509005328 | 14 | 261 | 6.4 | 24.1 | 0.00 | 0.05 | 0.00 | 51 | 1013.8 |
| 20260509004337 | 14 | 307 | 8.0 | 24.1 | 0.00 | 0.05 | 0.00 | 51 | 1013.8 |
| 20260509003325 | 14 | 344 | 9.7 | 22.5 | 0.00 | 0.05 | 0.00 | 51 | 1013.7 |
| 20260509002334 | 13 | 31 | 9.7 | 25.7 | 0.00 | 0.05 | 0.00 | 51 | 1013.4 |
| 20260509001328 | 13 | 355 | 12.9 | 29.0 | 0.00 | 0.05 | 0.00 | 52 | 1013.4 |
| 20260509000337 | 13 | 5 | 14.5 | 27.4 | 0.00 | 0.05 | 0.00 | 53 | 1013.4 |
| 20260508235327 | 13 | 19 | 11.3 | 32.2 | 0.00 | 0.05 | 0.00 | 53 | 1013.2 |
| 20260508234337 | 13 | 44 | 16.1 | 29.0 | 0.00 | 0.05 | 0.00 | 54 | 1013.1 |
| 20260508233330 | 13 | 5 | 9.7 | 24.1 | 0.00 | 0.05 | 0.00 | 56 | 1012.9 |
| 20260508232341 | 13 | 20 | 14.5 | 27.4 | 0.00 | 0.05 | 0.00 | 55 | 1012.7 |
| 20260508231330 | 13 | 71 | 11.3 | 29.0 | 0.00 | 0.05 | 0.00 | 53 | 1012.5 |
| 20260508230341 | 13 | 32 | 17.7 | 30.6 | 0.00 | 0.05 | 0.00 | 51 | 1012.3 |
| 20260508225329 | 13 | 360 | 8.0 | 22.5 | 0.00 | 0.05 | 0.00 | 52 | 1012.0 |
| 20260508224338 | 13 | 319 | 3.2 | 19.3 | 0.00 | 0.05 | 0.00 | 53 | 1011.9 |
| 20260508223328 | 13 | 346 | 8.0 | 24.1 | 0.00 | 0.05 | 0.00 | 54 | 1011.8 |
| 20260508222340 | 12 | 330 | 8.0 | 22.5 | 0.00 | 0.05 | 0.00 | 55 | 1012.7 |
| 20260508221328 | 12 | 324 | 8.0 | 19.3 | 0.00 | 0.05 | 0.00 | 56 | 1012.4 |
| 20260508220338 | 12 | 288 | 8.0 | 20.9 | 0.00 | 0.05 | 0.00 | 55 | 1012.0 |
| 20260508215325 | 13 | 338 | 4.8 | 9.7 | 0.00 | 0.05 | 0.00 | 53 | 1011.7 |
| 20260508214338 | 12 | 302 | 3.2 | 9.7 | 0.00 | 0.05 | 0.00 | 53 | 1011.3 |
| 20260508213325 | 12 | 232 | 8.0 | 14.5 | 0.00 | 0.05 | 0.00 | 54 | 1011.1 |
| 20260508212333 | 12 | 222 | 3.2 | 17.7 | 0.00 | 0.05 | 0.00 | 54 | 1010.7 |
| 20260508211326 | 12 | 186 | 6.4 | 22.5 | 0.00 | 0.05 | 0.00 | 54 | 1010.3 |
| 20260508210336 | 11 | 236 | 9.7 | 29.0 | 0.00 | 0.05 | 0.00 | 54 | 1010.0 |
| 20260508205325 | 11 | 211 | 14.5 | 29.0 | 0.00 | 0.05 | 0.00 | 56 | 1009.7 |
| 20260508204335 | 10 | 250 | 16.1 | 29.0 | 0.00 | 0.05 | 0.00 | 56 | 1009.8 |
| 20260508203327 | 10 | 215 | 12.9 | 24.1 | 0.00 | 0.05 | 0.00 | 56 | 1009.8 |